Time,TemperatureF,DewpointF,PressureIn,WindDirection,WindDirectionDegrees,WindSpeedMPH,WindSpeedGustMPH,Humidity,HourlyPrecipIn,Conditions,Clouds,dailyrainin,SoftwareType,DateUTC
2013-02-23 00:00:00,32.4,26.3,30.23,SE,137,7.0,8.0,78,0.00,,,0.00,Wunderground v.1.15,2013-02-23 05:00:00,
2013-02-23 00:05:00,32.4,26.3,30.23,SE,138,6.0,6.0,78,0.00,,,0.00,Wunderground v.1.15,2013-02-23 05:05:00,
2013-02-23 00:11:00,32.4,26.3,30.22,SE,138,4.0,4.0,78,0.00,,,0.00,Wunderground v.1.15,2013-02-23 05:11:00,
2013-02-23 00:17:00,32.4,26.6,30.22,SE,134,4.0,6.0,79,0.00,,,0.00,Wunderground v.1.15,2013-02-23 05:17:00,
2013-02-23 00:23:00,32.4,26.6,30.22,SE,145,0.0,4.0,79,0.00,,,0.00,Wunderground v.1.15,2013-02-23 05:23:00,
2013-02-23 00:29:00,32.4,26.6,30.22,SSE,154,2.0,4.0,79,0.00,,,0.00,Wunderground v.1.15,2013-02-23 05:29:00,
2013-02-23 00:35:00,32.4,26.9,30.22,SSE,153,3.0,4.0,80,0.00,,,0.00,Wunderground v.1.15,2013-02-23 05:35:00,
2013-02-23 00:41:00,32.2,27.0,30.22,South,171,1.0,4.0,81,0.00,,,0.00,Wunderground v.1.15,2013-02-23 05:41:00,
2013-02-23 00:47:00,31.9,27.3,30.22,SSE,152,2.0,5.0,83,0.00,,,0.00,Wunderground v.1.15,2013-02-23 05:47:00,
2013-02-23 00:53:00,31.8,27.5,30.22,SSE,152,3.0,3.0,84,0.00,,,0.00,Wunderground v.1.15,2013-02-23 05:53:00,
2013-02-23 00:58:00,31.7,27.4,30.22,SSE,151,3.0,4.0,84,0.00,,,0.00,Wunderground v.1.15,2013-02-23 05:58:00,
2013-02-23 01:03:00,31.7,27.1,30.21,SSE,155,5.0,5.0,83,0.00,,,0.00,Wunderground v.1.15,2013-02-23 06:03:00,
2013-02-23 01:09:00,31.9,27.3,30.21,South,175,6.0,6.0,83,0.00,,,0.00,Wunderground v.1.15,2013-02-23 06:09:00,
2013-02-23 01:15:00,32.1,27.2,30.21,South,178,5.0,8.0,82,0.00,,,0.00,Wunderground v.1.15,2013-02-23 06:15:00,
2013-02-23 01:20:00,32.1,27.2,30.21,South,182,4.0,8.0,82,0.00,,,0.00,Wunderground v.1.15,2013-02-23 06:20:00,
2013-02-23 01:26:00,32.3,27.4,30.21,SSE,160,2.0,7.0,82,0.00,,,0.00,Wunderground v.1.15,2013-02-23 06:26:00,
2013-02-23 01:31:00,32.2,27.6,30.21,South,174,6.0,6.0,83,0.00,,,0.00,Wunderground v.1.15,2013-02-23 06:31:00,
2013-02-23 01:37:00,32.1,27.5,30.21,SSE,155,3.0,8.0,83,0.00,,,0.00,Wunderground v.1.15,2013-02-23 06:37:00,
2013-02-23 01:43:00,32.0,28.0,30.21,SSE,167,7.0,7.0,85,0.00,,,0.00,Wunderground v.1.15,2013-02-23 06:43:00,
2013-02-23 01:49:00,31.9,27.9,30.21,SSW,194,1.0,11.0,85,0.00,,,0.00,Wunderground v.1.15,2013-02-23 06:49:00,
2013-02-23 01:54:00,31.7,28.0,30.21,South,180,0.0,5.0,86,0.00,,,0.00,Wunderground v.1.15,2013-02-23 06:54:00,
2013-02-23 02:00:00,31.5,28.1,30.21,SSW,209,4.0,4.0,87,0.00,,,0.00,Wunderground v.1.15,2013-02-23 07:00:00,
2013-02-23 02:05:00,31.4,28.0,30.21,South,186,5.0,6.0,87,0.00,,,0.00,Wunderground v.1.15,2013-02-23 07:05:00,
2013-02-23 02:10:00,31.2,28.1,30.21,South,179,2.0,3.0,88,0.00,,,0.00,Wunderground v.1.15,2013-02-23 07:10:00,
2013-02-23 02:15:00,31.1,28.2,30.20,SSW,196,1.0,5.0,89,0.00,,,0.00,Wunderground v.1.15,2013-02-23 07:15:00,
2013-02-23 02:20:00,31.0,28.1,30.20,SSW,193,4.0,4.0,89,0.00,,,0.00,Wunderground v.1.15,2013-02-23 07:20:00,
2013-02-23 02:25:00,31.0,28.1,30.20,South,185,2.0,4.0,89,0.00,,,0.00,Wunderground v.1.15,2013-02-23 07:25:00,
2013-02-23 02:31:00,31.0,28.1,30.19,South,185,0.0,2.0,89,0.00,,,0.00,Wunderground v.1.15,2013-02-23 07:31:00,
2013-02-23 02:36:00,31.0,28.1,30.19,South,185,0.0,2.0,89,0.00,,,0.00,Wunderground v.1.15,2013-02-23 07:36:00,
2013-02-23 02:41:00,31.0,28.1,30.19,South,172,0.0,2.0,89,0.00,,,0.00,Wunderground v.1.15,2013-02-23 07:41:00,
2013-02-23 02:46:00,31.0,28.1,30.18,South,172,0.0,2.0,89,0.00,,,0.00,Wunderground v.1.15,2013-02-23 07:46:00,
2013-02-23 02:51:00,31.0,28.1,30.18,SSE,164,1.0,1.0,89,0.00,,,0.00,Wunderground v.1.15,2013-02-23 07:51:00,
2013-02-23 02:56:00,31.0,28.1,30.17,SSE,164,0.0,3.0,89,0.00,,,0.00,Wunderground v.1.15,2013-02-23 07:56:00,
2013-02-23 03:01:00,31.0,28.1,30.17,SE,145,0.0,1.0,89,0.00,,,0.00,Wunderground v.1.15,2013-02-23 08:01:00,
2013-02-23 03:06:00,31.0,28.1,30.17,SE,145,0.0,2.0,89,0.00,,,0.00,Wunderground v.1.15,2013-02-23 08:06:00,
2013-02-23 03:11:00,31.0,28.1,30.17,SE,145,0.0,0.0,89,0.00,,,0.00,Wunderground v.1.15,2013-02-23 08:11:00,
2013-02-23 03:16:00,31.0,28.1,30.16,SE,145,0.0,0.0,89,0.00,,,0.00,Wunderground v.1.15,2013-02-23 08:16:00,
2013-02-23 03:21:00,31.0,28.1,30.16,SE,145,0.0,0.0,89,0.00,,,0.00,Wunderground v.1.15,2013-02-23 08:21:00,
2013-02-23 03:26:00,31.0,28.1,30.16,SE,145,0.0,0.0,89,0.00,,,0.00,Wunderground v.1.15,2013-02-23 08:26:00,
2013-02-23 03:31:00,31.1,28.2,30.16,SE,145,0.0,0.0,89,0.00,,,0.00,Wunderground v.1.15,2013-02-23 08:31:00,
2013-02-23 03:36:00,31.1,28.2,30.15,SE,145,0.0,0.0,89,0.00,,,0.00,Wunderground v.1.15,2013-02-23 08:36:00,
2013-02-23 03:41:00,31.1,28.2,30.16,SE,145,0.0,0.0,89,0.00,,,0.00,Wunderground v.1.15,2013-02-23 08:41:00,
2013-02-23 03:46:00,31.2,28.3,30.16,SE,145,0.0,0.0,89,0.00,,,0.00,Wunderground v.1.15,2013-02-23 08:46:00,
2013-02-23 03:52:00,31.3,28.4,30.16,SE,145,0.0,0.0,89,0.00,,,0.00,Wunderground v.1.15,2013-02-23 08:52:00,
2013-02-23 03:57:00,31.3,28.4,30.16,SE,145,0.0,0.0,89,0.00,,,0.00,Wunderground v.1.15,2013-02-23 08:57:00,
2013-02-23 04:02:00,31.4,28.5,30.16,SE,145,0.0,0.0,89,0.00,,,0.00,Wunderground v.1.15,2013-02-23 09:02:00,
2013-02-23 04:07:00,31.4,28.5,30.16,SE,145,0.0,0.0,89,0.00,,,0.00,Wunderground v.1.15,2013-02-23 09:07:00,
2013-02-23 04:12:00,31.5,28.4,30.16,SE,145,0.0,0.0,88,0.00,,,0.00,Wunderground v.1.15,2013-02-23 09:12:00,
2013-02-23 04:17:00,31.6,28.5,30.16,SE,145,0.0,0.0,88,0.00,,,0.00,Wunderground v.1.15,2013-02-23 09:17:00,
2013-02-23 04:22:00,31.6,28.5,30.15,SE,145,0.0,0.0,88,0.00,,,0.00,Wunderground v.1.15,2013-02-23 09:22:00,
2013-02-23 04:27:00,31.7,28.3,30.15,SE,145,0.0,0.0,87,0.00,,,0.00,Wunderground v.1.15,2013-02-23 09:27:00,
2013-02-23 04:32:00,31.8,28.4,30.15,SE,136,2.0,2.0,87,0.00,,,0.00,Wunderground v.1.15,2013-02-23 09:32:00,
2013-02-23 04:37:00,31.8,28.4,30.15,SE,136,0.0,2.0,87,0.00,,,0.00,Wunderground v.1.15,2013-02-23 09:37:00,
2013-02-23 04:42:00,31.9,28.5,30.15,SE,136,2.0,2.0,87,0.00,,,0.00,Wunderground v.1.15,2013-02-23 09:42:00,
2013-02-23 04:47:00,31.9,28.5,30.15,ESE,114,2.0,4.0,87,0.00,,,0.00,Wunderground v.1.15,2013-02-23 09:47:00,
2013-02-23 04:52:00,32.0,28.3,30.15,ESE,119,3.0,3.0,86,0.00,,,0.00,Wunderground v.1.15,2013-02-23 09:52:00,
2013-02-23 04:57:00,32.1,28.4,30.14,ESE,119,2.0,3.0,86,0.00,,,0.00,Wunderground v.1.15,2013-02-23 09:57:00,
2013-02-23 05:02:00,32.1,28.4,30.15,ESE,123,2.0,3.0,86,0.00,,,0.00,Wunderground v.1.15,2013-02-23 10:02:00,
2013-02-23 05:07:00,32.1,28.4,30.15,SE,124,1.0,3.0,86,0.00,,,0.00,Wunderground v.1.15,2013-02-23 10:07:00,
2013-02-23 05:12:00,32.1,28.4,30.14,SE,124,1.0,2.0,86,0.00,,,0.00,Wunderground v.1.15,2013-02-23 10:12:00,
2013-02-23 05:17:00,32.2,28.5,30.14,ESE,123,2.0,3.0,86,0.00,,,0.00,Wunderground v.1.15,2013-02-23 10:17:00,
2013-02-23 05:22:00,32.2,28.5,30.14,East,98,2.0,2.0,86,0.00,,,0.00,Wunderground v.1.15,2013-02-23 10:22:00,
2013-02-23 05:27:00,32.3,28.6,30.14,ESE,107,3.0,3.0,86,0.00,,,0.00,Wunderground v.1.15,2013-02-23 10:27:00,
2013-02-23 05:32:00,32.3,28.6,30.14,ESE,109,1.0,3.0,86,0.00,,,0.00,Wunderground v.1.15,2013-02-23 10:32:00,
2013-02-23 05:37:00,32.3,28.6,30.14,SE,134,2.0,5.0,86,0.00,,,0.00,Wunderground v.1.15,2013-02-23 10:37:00,
2013-02-23 05:42:00,32.4,28.4,30.13,ESE,119,2.0,4.0,85,0.00,,,0.00,Wunderground v.1.15,2013-02-23 10:42:00,
2013-02-23 05:47:00,32.4,28.4,30.13,ESE,109,3.0,5.0,85,0.00,,,0.00,Wunderground v.1.15,2013-02-23 10:47:00,
2013-02-23 05:52:00,32.5,28.5,30.13,SE,126,4.0,5.0,85,0.00,,,0.00,Wunderground v.1.15,2013-02-23 10:52:00,
2013-02-23 05:57:00,32.5,28.5,30.13,SE,128,2.0,5.0,85,0.00,,,0.00,Wunderground v.1.15,2013-02-23 10:57:00,
2013-02-23 06:02:00,32.5,28.8,30.13,SE,129,2.0,4.0,86,0.00,,,0.00,Wunderground v.1.15,2013-02-23 11:02:00,
2013-02-23 06:07:00,32.6,28.6,30.13,ESE,122,3.0,6.0,85,0.00,,,0.00,Wunderground v.1.15,2013-02-23 11:07:00,
2013-02-23 06:12:00,32.7,29.0,30.13,ESE,103,3.0,4.0,86,0.00,,,0.00,Wunderground v.1.15,2013-02-23 11:12:00,
2013-02-23 06:17:00,32.7,29.0,30.13,ESE,111,3.0,4.0,86,0.00,,,0.00,Wunderground v.1.15,2013-02-23 11:17:00,
2013-02-23 06:22:00,32.7,29.0,30.13,ESE,113,2.0,2.0,86,0.00,,,0.00,Wunderground v.1.15,2013-02-23 11:22:00,
2013-02-23 06:27:00,32.7,29.0,30.13,ESE,105,3.0,3.0,86,0.00,,,0.00,Wunderground v.1.15,2013-02-23 11:27:00,
2013-02-23 06:32:00,32.7,29.0,30.13,ESE,119,0.0,4.0,86,0.00,,,0.00,Wunderground v.1.15,2013-02-23 11:32:00,
2013-02-23 06:37:00,32.7,29.0,30.12,ESE,108,1.0,4.0,86,0.00,,,0.00,Wunderground v.1.15,2013-02-23 11:37:00,
2013-02-23 06:42:00,32.7,29.0,30.12,SE,130,4.0,6.0,86,0.00,,,0.00,Wunderground v.1.15,2013-02-23 11:42:00,
2013-02-23 06:47:00,32.7,29.0,30.12,ESE,111,5.0,8.0,86,0.00,,,0.00,Wunderground v.1.15,2013-02-23 11:47:00,
2013-02-23 06:52:00,32.7,29.3,30.12,ESE,115,7.0,9.0,87,0.00,,,0.00,Wunderground v.1.15,2013-02-23 11:52:00,
2013-02-23 06:57:00,32.6,29.2,30.11,ESE,123,3.0,9.0,87,0.00,,,0.00,Wunderground v.1.15,2013-02-23 11:57:00,
2013-02-23 07:02:00,32.6,29.2,30.11,ESE,123,7.0,11.0,87,0.00,,,0.00,Wunderground v.1.15,2013-02-23 12:02:00,
2013-02-23 07:07:00,32.6,29.4,30.12,SE,140,8.0,12.0,88,0.00,,,0.00,Wunderground v.1.15,2013-02-23 12:07:00,
2013-02-23 07:12:00,32.6,29.4,30.12,SE,131,5.0,10.0,88,0.00,,,0.00,Wunderground v.1.15,2013-02-23 12:12:00,
2013-02-23 07:17:00,32.6,29.4,30.11,SE,128,4.0,10.0,88,0.00,,,0.00,Wunderground v.1.15,2013-02-23 12:17:00,
2013-02-23 07:22:00,32.6,29.4,30.12,SE,125,6.0,11.0,88,0.00,,,0.00,Wunderground v.1.15,2013-02-23 12:22:00,
2013-02-23 07:27:00,32.6,29.4,30.11,ESE,122,5.0,12.0,88,0.00,,,0.00,Wunderground v.1.15,2013-02-23 12:27:00,
2013-02-23 07:33:00,32.6,29.4,30.11,SE,129,6.0,10.0,88,0.00,,,0.00,Wunderground v.1.15,2013-02-23 12:33:00,
2013-02-23 07:38:00,32.7,29.5,30.11,SE,133,8.0,10.0,88,0.00,,,0.00,Wunderground v.1.15,2013-02-23 12:38:00,
2013-02-23 07:43:00,32.7,29.8,30.12,SE,138,10.0,10.0,89,0.00,,,0.00,Wunderground v.1.15,2013-02-23 12:43:00,
2013-02-23 07:48:00,32.7,29.8,30.11,SE,126,4.0,10.0,89,0.00,,,0.00,Wunderground v.1.15,2013-02-23 12:48:00,
2013-02-23 07:53:00,32.7,29.8,30.11,SE,138,6.0,10.0,89,0.00,,,0.00,Wunderground v.1.15,2013-02-23 12:53:00,
2013-02-23 07:58:00,32.7,29.8,30.11,SE,132,5.0,10.0,89,0.00,,,0.00,Wunderground v.1.15,2013-02-23 12:58:00,
2013-02-23 08:03:00,32.7,30.1,30.11,ESE,119,4.0,7.0,90,0.00,,,0.00,Wunderground v.1.15,2013-02-23 13:03:00,
2013-02-23 08:08:00,32.7,30.1,30.11,SE,127,6.0,10.0,90,0.00,,,0.00,Wunderground v.1.15,2013-02-23 13:08:00,
2013-02-23 08:13:00,32.8,30.2,30.10,ESE,119,4.0,8.0,90,0.00,,,0.00,Wunderground v.1.15,2013-02-23 13:13:00,
2013-02-23 08:18:00,32.8,30.2,30.10,ESE,113,3.0,9.0,90,0.00,,,0.00,Wunderground v.1.15,2013-02-23 13:18:00,
2013-02-23 08:23:00,32.9,30.3,30.10,SE,136,4.0,9.0,90,0.00,,,0.00,Wunderground v.1.15,2013-02-23 13:23:00,
2013-02-23 08:28:00,32.9,30.3,30.10,ESE,111,4.0,10.0,90,0.00,,,0.00,Wunderground v.1.15,2013-02-23 13:28:00,
2013-02-23 08:33:00,33.0,30.4,30.10,ESE,105,5.0,10.0,90,0.00,,,0.00,Wunderground v.1.15,2013-02-23 13:33:00,
2013-02-23 08:38:00,33.2,30.6,30.09,ESE,123,9.0,10.0,90,0.00,,,0.00,Wunderground v.1.15,2013-02-23 13:38:00,
2013-02-23 08:43:00,33.3,30.7,30.09,ESE,119,10.0,10.0,90,0.00,,,0.00,Wunderground v.1.15,2013-02-23 13:43:00,
2013-02-23 08:48:00,33.3,30.7,30.09,ESE,122,9.0,11.0,90,0.00,,,0.00,Wunderground v.1.15,2013-02-23 13:48:00,
2013-02-23 08:53:00,33.4,30.8,30.09,ESE,113,5.0,9.0,90,0.00,,,0.00,Wunderground v.1.15,2013-02-23 13:53:00,
2013-02-23 08:58:00,33.5,30.9,30.08,ESE,122,9.0,11.0,90,0.00,,,0.00,Wunderground v.1.15,2013-02-23 13:58:00,
2013-02-23 09:03:00,33.6,31.0,30.08,SE,134,9.0,13.0,90,0.00,,,0.00,Wunderground v.1.15,2013-02-23 14:03:00,
2013-02-23 09:08:00,33.7,31.1,30.08,SE,137,8.0,13.0,90,0.00,,,0.00,Wunderground v.1.15,2013-02-23 14:08:00,
2013-02-23 09:13:00,33.8,31.2,30.08,SE,131,7.0,10.0,90,0.00,,,0.00,Wunderground v.1.15,2013-02-23 14:13:00,
2013-02-23 09:18:00,33.8,31.2,30.08,ESE,119,7.0,10.0,90,0.00,,,0.00,Wunderground v.1.15,2013-02-23 14:18:00,
2013-02-23 09:23:00,33.8,31.2,30.08,SE,129,10.0,13.0,90,0.00,,,0.00,Wunderground v.1.15,2013-02-23 14:23:00,
2013-02-23 09:28:00,33.9,31.3,30.08,ESE,121,5.0,14.0,90,0.00,,,0.00,Wunderground v.1.15,2013-02-23 14:28:00,
2013-02-23 09:33:00,33.9,31.3,30.08,ESE,123,8.0,11.0,90,0.00,,,0.00,Wunderground v.1.15,2013-02-23 14:33:00,
2013-02-23 09:38:00,33.9,31.3,30.08,SE,126,7.0,11.0,90,0.00,,,0.00,Wunderground v.1.15,2013-02-23 14:38:00,
2013-02-23 09:43:00,33.9,31.6,30.07,ESE,119,5.0,12.0,91,0.00,,,0.00,Wunderground v.1.15,2013-02-23 14:43:00,
2013-02-23 09:48:00,34.0,31.6,30.07,ESE,120,7.0,12.0,91,0.00,,,0.00,Wunderground v.1.15,2013-02-23 14:48:00,
2013-02-23 09:53:00,34.0,31.6,30.07,ESE,120,5.0,10.0,91,0.00,,,0.00,Wunderground v.1.15,2013-02-23 14:53:00,
2013-02-23 09:58:00,34.0,31.6,30.07,SE,127,6.0,10.0,91,0.00,,,0.00,Wunderground v.1.15,2013-02-23 14:58:00,
2013-02-23 10:03:00,34.1,31.7,30.07,ESE,120,4.0,10.0,91,0.00,,,0.00,Wunderground v.1.15,2013-02-23 15:03:00,
2013-02-23 10:08:00,34.1,31.7,30.06,East,101,8.0,10.0,91,0.00,,,0.00,Wunderground v.1.15,2013-02-23 15:08:00,
2013-02-23 10:13:00,34.2,32.1,30.06,East,96,5.0,9.0,92,0.00,,,0.00,Wunderground v.1.15,2013-02-23 15:13:00,
2013-02-23 10:18:00,34.3,32.2,30.05,ESE,117,3.0,9.0,92,0.00,,,0.00,Wunderground v.1.15,2013-02-23 15:18:00,
2013-02-23 10:24:00,34.3,32.2,30.06,ESE,107,5.0,9.0,92,0.00,,,0.00,Wunderground v.1.15,2013-02-23 15:24:00,
2013-02-23 10:29:00,34.4,32.3,30.05,East,98,3.0,10.0,92,0.00,,,0.00,Wunderground v.1.15,2013-02-23 15:29:00,
2013-02-23 10:34:00,34.4,32.6,30.04,ESE,111,7.0,12.0,93,0.00,,,0.00,Wunderground v.1.15,2013-02-23 15:34:00,
2013-02-23 10:39:00,34.4,32.6,30.03,SE,130,10.0,14.0,93,0.00,,,0.00,Wunderground v.1.15,2013-02-23 15:39:00,
2013-02-23 10:44:00,34.4,32.6,30.03,ESE,111,9.0,11.0,93,0.00,,,0.00,Wunderground v.1.15,2013-02-23 15:44:00,
2013-02-23 10:49:00,34.4,32.6,30.03,SE,133,11.0,11.0,93,0.00,,,0.00,Wunderground v.1.15,2013-02-23 15:49:00,
2013-02-23 10:54:00,34.4,32.6,30.03,ESE,115,8.0,12.0,93,0.00,,,0.00,Wunderground v.1.15,2013-02-23 15:54:00,
2013-02-23 10:59:00,34.5,33.0,30.02,ESE,123,13.0,16.0,94,0.00,,,0.00,Wunderground v.1.15,2013-02-23 15:59:00,
2013-02-23 11:04:00,34.6,32.8,30.03,ESE,119,13.0,13.0,93,0.00,,,0.00,Wunderground v.1.15,2013-02-23 16:04:00,
2013-02-23 11:09:00,34.6,32.8,30.03,ESE,117,11.0,16.0,93,0.00,,,0.00,Wunderground v.1.15,2013-02-23 16:09:00,
2013-02-23 11:14:00,34.6,32.8,30.03,SE,124,7.0,11.0,93,0.00,,,0.00,Wunderground v.1.15,2013-02-23 16:14:00,
2013-02-23 11:19:00,34.7,32.9,30.02,SE,130,10.0,11.0,93,0.00,,,0.00,Wunderground v.1.15,2013-02-23 16:19:00,
2013-02-23 11:24:00,34.8,33.0,30.02,SE,126,6.0,12.0,93,0.00,,,0.00,Wunderground v.1.15,2013-02-23 16:24:00,
2013-02-23 11:29:00,34.8,33.0,30.02,ESE,116,10.0,12.0,93,0.00,,,0.00,Wunderground v.1.15,2013-02-23 16:29:00,
2013-02-23 11:34:00,34.9,33.1,30.02,ESE,119,5.0,9.0,93,0.00,,,0.00,Wunderground v.1.15,2013-02-23 16:34:00,
2013-02-23 11:39:00,35.1,33.3,30.02,SE,144,4.0,9.0,93,0.00,,,0.00,Wunderground v.1.15,2013-02-23 16:39:00,
2013-02-23 11:44:00,35.2,33.4,30.02,ESE,116,5.0,12.0,93,0.00,,,0.00,Wunderground v.1.15,2013-02-23 16:44:00,
2013-02-23 11:49:00,35.3,33.2,30.02,SE,138,7.0,12.0,92,0.00,,,0.00,Wunderground v.1.15,2013-02-23 16:49:00,
2013-02-23 11:54:00,35.4,33.3,30.02,SE,132,8.0,12.0,92,0.00,,,0.00,Wunderground v.1.15,2013-02-23 16:54:00,
2013-02-23 11:59:00,35.5,33.4,30.02,SSE,147,10.0,12.0,92,0.00,,,0.00,Wunderground v.1.15,2013-02-23 16:59:00,
2013-02-23 12:04:00,35.6,33.5,30.01,ESE,107,8.0,11.0,92,0.00,,,0.00,Wunderground v.1.15,2013-02-23 17:04:00,
2013-02-23 12:09:00,35.6,33.5,30.01,SE,132,5.0,11.0,92,0.00,,,0.00,Wunderground v.1.15,2013-02-23 17:09:00,
2013-02-23 12:14:00,35.6,33.5,30.01,East,91,2.0,9.0,92,0.00,,,0.00,Wunderground v.1.15,2013-02-23 17:14:00,
2013-02-23 12:19:00,35.6,33.5,30.00,SE,125,6.0,9.0,92,0.00,,,0.00,Wunderground v.1.15,2013-02-23 17:19:00,
2013-02-23 12:24:00,35.6,33.5,30.00,East,101,5.0,5.0,92,0.00,,,0.00,Wunderground v.1.15,2013-02-23 17:24:00,
2013-02-23 12:29:00,35.6,33.8,30.00,ESE,104,5.0,9.0,93,0.00,,,0.00,Wunderground v.1.15,2013-02-23 17:29:00,
2013-02-23 12:34:00,35.6,33.8,30.00,ESE,109,3.0,9.0,93,0.00,,,0.00,Wunderground v.1.15,2013-02-23 17:34:00,
2013-02-23 12:39:00,35.6,33.8,30.00,East,95,7.0,9.0,93,0.00,,,0.00,Wunderground v.1.15,2013-02-23 17:39:00,
2013-02-23 12:44:00,35.7,33.9,30.00,SE,125,4.0,7.0,93,0.00,,,0.00,Wunderground v.1.15,2013-02-23 17:44:00,
2013-02-23 12:49:00,35.7,33.9,30.00,ESE,115,2.0,7.0,93,0.00,,,0.00,Wunderground v.1.15,2013-02-23 17:49:00,
2013-02-23 12:54:00,35.8,34.0,30.00,SE,130,4.0,7.0,93,0.00,,,0.00,Wunderground v.1.15,2013-02-23 17:54:00,
2013-02-23 12:59:00,35.9,34.1,30.00,ESE,111,1.0,7.0,93,0.00,,,0.00,Wunderground v.1.15,2013-02-23 17:59:00,
2013-02-23 13:04:00,36.0,34.2,30.00,ESE,104,0.0,3.0,93,0.00,,,0.00,Wunderground v.1.15,2013-02-23 18:04:00,
2013-02-23 13:09:00,36.1,34.3,30.00,SE,134,2.0,5.0,93,0.00,,,0.00,Wunderground v.1.15,2013-02-23 18:09:00,
2013-02-23 13:14:00,36.2,34.4,30.00,ESE,120,2.0,5.0,93,0.00,,,0.00,Wunderground v.1.15,2013-02-23 18:14:00,
2013-02-23 13:19:00,36.2,34.4,29.99,ESE,115,2.0,5.0,93,0.00,,,0.00,Wunderground v.1.15,2013-02-23 18:19:00,
2013-02-23 13:24:00,36.3,34.5,29.99,SE,128,6.0,7.0,93,0.00,,,0.00,Wunderground v.1.15,2013-02-23 18:24:00,
2013-02-23 13:29:00,36.4,34.6,29.99,ESE,105,3.0,7.0,93,0.00,,,0.00,Wunderground v.1.15,2013-02-23 18:29:00,
2013-02-23 13:34:00,36.6,34.8,29.98,ESE,108,3.0,4.0,93,0.00,,,0.00,Wunderground v.1.15,2013-02-23 18:34:00,
2013-02-23 13:39:00,36.6,34.8,29.98,SE,125,4.0,7.0,93,0.00,,,0.00,Wunderground v.1.15,2013-02-23 18:39:00,
2013-02-23 13:44:00,36.7,34.9,29.98,SE,143,2.0,6.0,93,0.00,,,0.00,Wunderground v.1.15,2013-02-23 18:44:00,
2013-02-23 13:49:00,36.6,34.8,29.99,SE,137,4.0,6.0,93,0.00,,,0.00,Wunderground v.1.15,2013-02-23 18:49:00,
2013-02-23 13:54:00,36.6,34.8,29.98,ESE,119,4.0,5.0,93,0.00,,,0.00,Wunderground v.1.15,2013-02-23 18:54:00,
2013-02-23 13:59:00,36.6,34.8,29.97,ESE,111,9.0,11.0,93,0.00,,,0.00,Wunderground v.1.15,2013-02-23 18:59:00,
2013-02-23 14:04:00,36.7,34.9,29.97,SE,132,4.0,9.0,93,0.00,,,0.01,Wunderground v.1.15,2013-02-23 19:04:00,
2013-02-23 14:09:00,36.7,34.9,29.97,SE,125,1.0,9.0,93,0.00,,,0.01,Wunderground v.1.15,2013-02-23 19:09:00,
2013-02-23 14:14:00,36.7,34.9,29.97,SE,124,4.0,6.0,93,0.00,,,0.01,Wunderground v.1.15,2013-02-23 19:14:00,
2013-02-23 14:19:00,36.7,34.9,29.96,SE,126,4.0,9.0,93,0.00,,,0.01,Wunderground v.1.15,2013-02-23 19:19:00,
2013-02-23 14:24:00,36.8,35.0,29.97,SE,135,2.0,7.0,93,0.00,,,0.01,Wunderground v.1.15,2013-02-23 19:24:00,
2013-02-23 14:29:00,36.9,35.1,29.97,SE,140,5.0,7.0,93,0.00,,,0.01,Wunderground v.1.15,2013-02-23 19:29:00,
2013-02-23 14:34:00,37.0,35.2,29.96,SE,145,4.0,9.0,93,0.00,,,0.01,Wunderground v.1.15,2013-02-23 19:34:00,
2013-02-23 14:40:00,37.1,35.3,29.96,SSE,147,4.0,9.0,93,0.00,,,0.01,Wunderground v.1.15,2013-02-23 19:40:00,
2013-02-23 14:45:00,37.1,35.5,29.96,ESE,123,2.0,7.0,94,0.00,,,0.01,Wunderground v.1.15,2013-02-23 19:45:00,
2013-02-23 14:50:00,37.1,35.5,29.96,SE,132,4.0,7.0,94,0.00,,,0.02,Wunderground v.1.15,2013-02-23 19:50:00,
2013-02-23 14:55:00,37.1,35.3,29.96,ESE,120,5.0,9.0,93,0.00,,,0.02,Wunderground v.1.15,2013-02-23 19:55:00,
2013-02-23 15:00:00,37.1,35.3,29.95,ESE,121,5.0,9.0,93,0.00,,,0.02,Wunderground v.1.15,2013-02-23 20:00:00,
2013-02-23 15:05:00,37.1,35.5,29.95,SE,128,2.0,6.0,94,0.00,,,0.02,Wunderground v.1.15,2013-02-23 20:05:00,
2013-02-23 15:10:00,37.0,35.2,29.95,SE,131,5.0,9.0,93,0.00,,,0.02,Wunderground v.1.15,2013-02-23 20:10:00,
2013-02-23 15:15:00,37.1,35.5,29.95,SE,138,1.0,8.0,94,0.00,,,0.02,Wunderground v.1.15,2013-02-23 20:15:00,
2013-02-23 15:20:00,37.1,35.3,29.95,ESE,111,4.0,8.0,93,0.00,,,0.02,Wunderground v.1.15,2013-02-23 20:20:00,
2013-02-23 15:24:00,37.1,35.3,29.95,ESE,110,1.0,5.0,93,0.00,,,0.02,Wunderground v.1.15,2013-02-23 20:24:00,
2013-02-23 15:29:00,37.2,35.4,29.95,ESE,116,3.0,6.0,93,0.00,,,0.02,Wunderground v.1.15,2013-02-23 20:29:00,
2013-02-23 15:34:00,37.2,35.4,29.95,ESE,114,2.0,6.0,93,0.00,,,0.02,Wunderground v.1.15,2013-02-23 20:34:00,
2013-02-23 15:40:00,37.2,35.4,29.95,ESE,111,5.0,10.0,93,0.00,,,0.02,Wunderground v.1.15,2013-02-23 20:40:00,
2013-02-23 15:45:00,37.3,35.5,29.94,SE,126,7.0,10.0,93,0.00,,,0.02,Wunderground v.1.15,2013-02-23 20:45:00,
2013-02-23 15:50:00,37.4,35.6,29.94,ESE,103,9.0,11.0,93,0.00,,,0.02,Wunderground v.1.15,2013-02-23 20:50:00,
2013-02-23 15:55:00,37.4,35.3,29.94,ESE,121,3.0,12.0,92,0.00,,,0.02,Wunderground v.1.15,2013-02-23 20:55:00,
2013-02-23 16:00:00,37.3,35.2,29.95,SSE,147,2.0,12.0,92,0.00,,,0.02,Wunderground v.1.15,2013-02-23 21:00:00,
2013-02-23 16:05:00,37.3,35.2,29.94,SE,124,2.0,6.0,92,0.00,,,0.02,Wunderground v.1.15,2013-02-23 21:05:00,
2013-02-23 16:10:00,37.3,35.2,29.93,ESE,105,3.0,9.0,92,0.00,,,0.02,Wunderground v.1.15,2013-02-23 21:10:00,
2013-02-23 16:15:00,37.3,35.2,29.93,SSE,153,4.0,9.0,92,0.00,,,0.02,Wunderground v.1.15,2013-02-23 21:15:00,
2013-02-23 16:20:00,37.2,35.1,29.94,SSE,153,5.0,11.0,92,0.00,,,0.02,Wunderground v.1.15,2013-02-23 21:20:00,
2013-02-23 16:25:00,37.1,35.0,29.92,ESE,115,5.0,11.0,92,0.00,,,0.02,Wunderground v.1.15,2013-02-23 21:25:00,
2013-02-23 16:30:00,37.1,35.0,29.92,SE,124,6.0,11.0,92,0.00,,,0.02,Wunderground v.1.15,2013-02-23 21:30:00,
2013-02-23 16:35:00,37.0,34.9,29.92,SSE,154,6.0,10.0,92,0.00,,,0.02,Wunderground v.1.15,2013-02-23 21:35:00,
2013-02-23 16:40:00,37.0,34.9,29.92,ESE,116,7.0,11.0,92,0.00,,,0.02,Wunderground v.1.15,2013-02-23 21:40:00,
2013-02-23 16:45:00,37.0,34.9,29.92,ESE,119,3.0,9.0,92,0.00,,,0.02,Wunderground v.1.15,2013-02-23 21:45:00,
2013-02-23 16:50:00,36.9,34.8,29.92,SSE,153,3.0,9.0,92,0.00,,,0.02,Wunderground v.1.15,2013-02-23 21:50:00,
2013-02-23 16:55:00,36.8,34.7,29.92,SE,132,2.0,7.0,92,0.00,,,0.02,Wunderground v.1.15,2013-02-23 21:55:00,
2013-02-23 17:00:00,36.8,34.7,29.92,SE,130,7.0,8.0,92,0.00,,,0.02,Wunderground v.1.15,2013-02-23 22:00:00,
2013-02-23 17:05:00,36.8,34.7,29.92,SE,130,4.0,8.0,92,0.00,,,0.02,Wunderground v.1.15,2013-02-23 22:05:00,
2013-02-23 17:10:00,36.7,34.6,29.92,SE,142,6.0,8.0,92,0.00,,,0.02,Wunderground v.1.15,2013-02-23 22:10:00,
2013-02-23 17:15:00,36.7,34.6,29.92,SE,133,5.0,11.0,92,0.00,,,0.02,Wunderground v.1.15,2013-02-23 22:15:00,
2013-02-23 17:20:00,36.6,34.2,29.91,SE,138,6.0,12.0,91,0.00,,,0.02,Wunderground v.1.15,2013-02-23 22:20:00,
2013-02-23 17:25:00,36.5,34.1,29.91,SE,132,9.0,11.0,91,0.00,,,0.02,Wunderground v.1.15,2013-02-23 22:25:00,
2013-02-23 17:30:00,36.5,34.1,29.91,SE,125,6.0,11.0,91,0.00,,,0.02,Wunderground v.1.15,2013-02-23 22:30:00,
2013-02-23 17:35:00,36.4,34.0,29.91,SE,140,4.0,8.0,91,0.00,,,0.02,Wunderground v.1.15,2013-02-23 22:35:00,
2013-02-23 17:40:00,36.3,33.9,29.91,SE,126,4.0,4.0,91,0.00,,,0.02,Wunderground v.1.15,2013-02-23 22:40:00,
2013-02-23 17:45:00,36.2,33.8,29.91,SE,140,3.0,12.0,91,0.00,,,0.02,Wunderground v.1.15,2013-02-23 22:45:00,
2013-02-23 17:50:00,36.2,33.8,29.91,SE,127,5.0,5.0,91,0.00,,,0.02,Wunderground v.1.15,2013-02-23 22:50:00,
2013-02-23 17:55:00,36.1,33.7,29.90,ESE,115,5.0,10.0,91,0.00,,,0.02,Wunderground v.1.15,2013-02-23 22:55:00,
2013-02-23 18:00:00,36.1,33.7,29.90,SE,144,6.0,7.0,91,0.00,,,0.02,Wunderground v.1.15,2013-02-23 23:00:00,
2013-02-23 18:05:00,36.1,33.7,29.90,SE,124,2.0,7.0,91,0.00,,,0.02,Wunderground v.1.15,2013-02-23 23:05:00,
2013-02-23 18:10:00,36.0,33.6,29.90,ESE,115,4.0,4.0,91,0.00,,,0.02,Wunderground v.1.15,2013-02-23 23:10:00,
2013-02-23 18:15:00,35.9,33.5,29.89,SE,128,4.0,7.0,91,0.00,,,0.02,Wunderground v.1.15,2013-02-23 23:15:00,
2013-02-23 18:20:00,35.8,33.4,29.89,ESE,121,2.0,4.0,91,0.00,,,0.02,Wunderground v.1.15,2013-02-23 23:20:00,
2013-02-23 18:25:00,35.7,33.6,29.90,SE,136,2.0,5.0,92,0.00,,,0.02,Wunderground v.1.15,2013-02-23 23:25:00,
2013-02-23 18:30:00,35.7,33.6,29.90,SE,132,2.0,2.0,92,0.00,,,0.02,Wunderground v.1.15,2013-02-23 23:30:00,
2013-02-23 18:35:00,35.7,33.6,29.90,SE,132,0.0,2.0,92,0.00,,,0.02,Wunderground v.1.15,2013-02-23 23:35:00,
2013-02-23 18:40:00,35.7,33.6,29.89,SE,132,0.0,0.0,92,0.00,,,0.02,Wunderground v.1.15,2013-02-23 23:40:00,
2013-02-23 18:45:00,35.6,33.5,29.90,SE,132,0.0,0.0,92,0.00,,,0.02,Wunderground v.1.15,2013-02-23 23:45:00,
2013-02-23 18:50:00,35.6,33.5,29.89,SE,132,0.0,0.0,92,0.00,,,0.02,Wunderground v.1.15,2013-02-23 23:50:00,
2013-02-23 18:55:00,35.6,33.5,29.89,SE,132,2.0,2.0,92,0.00,,,0.02,Wunderground v.1.15,2013-02-23 23:55:00,
2013-02-23 19:00:00,35.5,33.4,29.89,SE,132,0.0,1.0,92,0.00,,,0.02,Wunderground v.1.15,2013-02-24 00:00:00,
2013-02-23 19:06:00,35.4,33.3,29.89,SE,132,0.0,1.0,92,0.00,,,0.02,Wunderground v.1.15,2013-02-24 00:06:00,
2013-02-23 19:11:00,35.3,33.2,29.90,SE,132,0.0,0.0,92,0.00,,,0.02,Wunderground v.1.15,2013-02-24 00:11:00,
2013-02-23 19:16:00,35.3,33.2,29.90,North,355,1.0,1.0,92,0.00,,,0.02,Wunderground v.1.15,2013-02-24 00:16:00,
2013-02-23 19:21:00,35.4,33.3,29.90,North,355,0.0,0.0,92,0.00,,,0.02,Wunderground v.1.15,2013-02-24 00:21:00,
2013-02-23 19:26:00,35.4,33.3,29.89,North,355,0.0,0.0,92,0.00,,,0.02,Wunderground v.1.15,2013-02-24 00:26:00,
2013-02-23 19:31:00,35.5,33.4,29.89,ENE,63,0.0,0.0,92,0.00,,,0.02,Wunderground v.1.15,2013-02-24 00:31:00,
2013-02-23 19:36:00,35.7,33.6,29.89,ESE,105,2.0,5.0,92,0.00,,,0.02,Wunderground v.1.15,2013-02-24 00:36:00,
2013-02-23 19:41:00,35.7,33.3,29.89,East,89,0.0,2.0,91,0.00,,,0.02,Wunderground v.1.15,2013-02-24 00:41:00,
2013-02-23 19:46:00,35.8,33.4,29.89,ESE,103,2.0,3.0,91,0.00,,,0.02,Wunderground v.1.15,2013-02-24 00:46:00,
2013-02-23 19:51:00,35.7,33.3,29.89,ESE,105,1.0,3.0,91,0.00,,,0.02,Wunderground v.1.15,2013-02-24 00:51:00,
2013-02-23 19:56:00,35.7,33.3,29.89,ESE,108,3.0,3.0,91,0.00,,,0.02,Wunderground v.1.15,2013-02-24 00:56:00,
2013-02-23 20:01:00,35.7,33.3,29.89,East,90,5.0,5.0,91,0.00,,,0.02,Wunderground v.1.15,2013-02-24 01:01:00,
2013-02-23 20:06:00,35.7,33.3,29.89,ESE,106,0.0,5.0,91,0.00,,,0.02,Wunderground v.1.15,2013-02-24 01:06:00,
2013-02-23 20:11:00,35.7,33.3,29.90,ESE,105,0.0,3.0,91,0.00,,,0.02,Wunderground v.1.15,2013-02-24 01:11:00,
2013-02-23 20:16:00,35.7,33.3,29.90,ESE,107,2.0,3.0,91,0.00,,,0.02,Wunderground v.1.15,2013-02-24 01:16:00,
2013-02-23 20:21:00,35.7,33.3,29.90,ESE,107,0.0,1.0,91,0.00,,,0.02,Wunderground v.1.15,2013-02-24 01:21:00,
2013-02-23 20:26:00,35.7,33.3,29.89,ESE,107,0.0,1.0,91,0.00,,,0.02,Wunderground v.1.15,2013-02-24 01:26:00,
2013-02-23 20:31:00,35.6,33.2,29.89,ESE,107,0.0,0.0,91,0.00,,,0.02,Wunderground v.1.15,2013-02-24 01:31:00,
2013-02-23 20:36:00,35.5,33.1,29.89,ESE,107,0.0,0.0,91,0.00,,,0.02,Wunderground v.1.15,2013-02-24 01:36:00,
2013-02-23 20:41:00,35.4,33.0,29.89,ESE,107,0.0,0.0,91,0.00,,,0.02,Wunderground v.1.15,2013-02-24 01:41:00,
2013-02-23 20:46:00,35.3,32.9,29.89,ESE,107,0.0,0.0,91,0.00,,,0.02,Wunderground v.1.15,2013-02-24 01:46:00,
2013-02-23 20:51:00,35.3,33.2,29.89,ESE,107,0.0,0.0,92,0.00,,,0.02,Wunderground v.1.15,2013-02-24 01:51:00,
2013-02-23 20:56:00,35.3,33.2,29.89,East,84,0.0,2.0,92,0.00,,,0.02,Wunderground v.1.15,2013-02-24 01:56:00,
2013-02-23 21:01:00,35.3,33.2,29.88,East,84,0.0,1.0,92,0.00,,,0.02,Wunderground v.1.15,2013-02-24 02:01:00,
2013-02-23 21:06:00,35.3,33.2,29.89,East,85,0.0,2.0,92,0.00,,,0.03,Wunderground v.1.15,2013-02-24 02:06:00,
2013-02-23 21:11:00,35.3,33.2,29.88,East,85,0.0,0.0,92,0.00,,,0.03,Wunderground v.1.15,2013-02-24 02:11:00,
2013-02-23 21:16:00,35.3,33.2,29.88,East,85,0.0,0.0,92,0.00,,,0.03,Wunderground v.1.15,2013-02-24 02:16:00,
2013-02-23 21:21:00,35.2,33.1,29.87,NNW,347,0.0,0.0,92,0.00,,,0.03,Wunderground v.1.15,2013-02-24 02:21:00,
2013-02-23 21:26:00,35.1,33.0,29.87,NNW,348,0.0,0.0,92,0.00,,,0.03,Wunderground v.1.15,2013-02-24 02:26:00,
2013-02-23 21:31:00,35.0,33.2,29.86,East,80,1.0,2.0,93,0.00,,,0.03,Wunderground v.1.15,2013-02-24 02:31:00,
2013-02-23 21:36:00,35.0,33.2,29.86,NE,55,0.0,4.0,93,0.00,,,0.03,Wunderground v.1.15,2013-02-24 02:36:00,
2013-02-23 21:41:00,34.9,33.1,29.85,ENE,59,0.0,1.0,93,0.00,,,0.03,Wunderground v.1.15,2013-02-24 02:41:00,
2013-02-23 21:46:00,34.9,33.1,29.85,ENE,65,0.0,1.0,93,0.00,,,0.03,Wunderground v.1.15,2013-02-24 02:46:00,
2013-02-23 21:51:00,34.8,33.0,29.85,ENE,59,0.0,0.0,93,0.00,,,0.03,Wunderground v.1.15,2013-02-24 02:51:00,
2013-02-23 21:56:00,34.7,33.2,29.85,NNE,17,0.0,0.0,94,0.00,,,0.04,Wunderground v.1.15,2013-02-24 02:56:00,
2013-02-23 22:01:00,34.7,32.9,29.84,NNE,17,0.0,0.0,93,0.00,,,0.04,Wunderground v.1.15,2013-02-24 03:01:00,
2013-02-23 22:06:00,34.6,33.1,29.84,NNE,17,0.0,0.0,94,0.00,,,0.04,Wunderground v.1.15,2013-02-24 03:06:00,
2013-02-23 22:11:00,34.6,33.1,29.84,North,5,0.0,0.0,94,0.00,,,0.04,Wunderground v.1.15,2013-02-24 03:11:00,
2013-02-23 22:16:00,34.5,33.0,29.84,NNE,17,0.0,2.0,94,0.00,,,0.04,Wunderground v.1.15,2013-02-24 03:16:00,
2013-02-23 22:21:00,34.5,33.0,29.83,NNE,13,0.0,0.0,94,0.00,,,0.04,Wunderground v.1.15,2013-02-24 03:21:00,
2013-02-23 22:26:00,34.4,32.9,29.83,NNE,13,0.0,3.0,94,0.00,,,0.04,Wunderground v.1.15,2013-02-24 03:26:00,
2013-02-23 22:31:00,34.4,32.9,29.84,NNW,347,0.0,2.0,94,0.00,,,0.04,Wunderground v.1.15,2013-02-24 03:31:00,
2013-02-23 22:36:00,34.3,32.8,29.83,NNW,347,0.0,2.0,94,0.00,,,0.04,Wunderground v.1.15,2013-02-24 03:36:00,
2013-02-23 22:41:00,34.3,33.0,29.83,NNW,347,0.0,0.0,95,0.00,,,0.04,Wunderground v.1.15,2013-02-24 03:41:00,
2013-02-23 22:46:00,34.2,32.9,29.83,NNW,343,0.0,1.0,95,0.00,,,0.04,Wunderground v.1.15,2013-02-24 03:46:00,
2013-02-23 22:51:00,34.2,32.9,29.83,NNW,343,0.0,0.0,95,0.00,,,0.04,Wunderground v.1.15,2013-02-24 03:51:00,
2013-02-23 22:56:00,34.1,32.8,29.82,NNW,343,0.0,0.0,95,0.00,,,0.04,Wunderground v.1.15,2013-02-24 03:56:00,
2013-02-23 23:01:00,34.1,32.8,29.82,NNW,343,0.0,0.0,95,0.00,,,0.04,Wunderground v.1.15,2013-02-24 04:01:00,
2013-02-23 23:06:00,34.1,32.8,29.82,North,5,0.0,3.0,95,0.00,,,0.04,Wunderground v.1.15,2013-02-24 04:06:00,
2013-02-23 23:11:00,34.1,32.8,29.81,North,5,0.0,0.0,95,0.00,,,0.04,Wunderground v.1.15,2013-02-24 04:11:00,
2013-02-23 23:16:00,34.0,32.7,29.81,NNW,346,0.0,0.0,95,0.00,,,0.04,Wunderground v.1.15,2013-02-24 04:16:00,
2013-02-23 23:21:00,34.0,32.7,29.81,NNW,345,0.0,0.0,95,0.00,,,0.04,Wunderground v.1.15,2013-02-24 04:21:00,
2013-02-23 23:26:00,33.9,32.6,29.81,NNW,340,0.0,2.0,95,0.00,,,0.04,Wunderground v.1.15,2013-02-24 04:26:00,
2013-02-23 23:32:00,33.9,32.6,29.81,NNW,340,0.0,0.0,95,0.00,,,0.04,Wunderground v.1.15,2013-02-24 04:32:00,
2013-02-23 23:37:00,33.9,32.6,29.81,NNW,340,0.0,0.0,95,0.00,,,0.04,Wunderground v.1.15,2013-02-24 04:37:00,
2013-02-23 23:42:00,33.8,32.5,29.80,NNW,340,0.0,2.0,95,0.00,,,0.04,Wunderground v.1.15,2013-02-24 04:42:00,
2013-02-23 23:47:00,33.8,32.5,29.80,NNW,331,2.0,2.0,95,0.00,,,0.04,Wunderground v.1.15,2013-02-24 04:47:00,
2013-02-23 23:52:00,33.8,32.5,29.80,NNW,331,0.0,2.0,95,0.00,,,0.04,Wunderground v.1.15,2013-02-24 04:52:00,
2013-02-23 23:57:00,33.8,32.5,29.80,NNW,330,1.0,2.0,95,0.00,,,0.04,Wunderground v.1.15,2013-02-24 04:57:00,